Date String (YYYY-MM-DD hh:mm:ss) UTC,Instrument flags,Ambient pressure (hPa),Sample flow (lpm),Bypass flow (lpm),Sample temperature (°C),Ambient temperature (°C),ASC tube jacket temperature (°C),LED temperature (°C),Box temperature (°C),Sample RH (%),Span deviation,Mass concentration (μg/m³),Mass concentration (μg/m³),Mass concentration (μg/m³)
DateTimeUTC,F1_M11,P_M11,Q1_M11,Q2_M11,T1_M11,T2_M11,T3_M11,T4_M11,T5_M11,U1_M11,ZSPAN_M11,X0_M11,X2_M11,X1_M11
2022-11-02 09:00:00,,0818.6,5.01,0.00,28.1,26.4,00.0,37.0,29.8,08.0,0000.0,0005.60,0002.24,0001.83
2022-11-02 09:01:00,,0818.6,5.00,0.00,28.1,26.4,00.0,37.0,29.8,08.0,0000.0,0005.71,0002.24,0001.82
2022-11-02 09:02:00,,0818.6,5.00,0.00,28.1,26.4,00.0,37.0,29.8,08.0,0000.0,0005.81,0002.23,0001.81
2022-11-02 09:03:00,,0818.7,5.00,0.00,28.1,26.4,00.0,37.0,29.8,08.1,0000.0,0005.71,0002.21,0001.81
2022-11-02 09:04:00,,0818.7,5.00,0.00,28.1,26.4,00.0,37.0,29.8,08.1,0000.0,0005.75,0002.23,0001.81
2022-11-02 09:05:00,,0818.7,5.00,0.00,28.1,26.4,00.0,37.0,29.8,08.1,0000.0,0005.71,0002.19,0001.81
2022-11-02 09:06:00,,0818.7,5.00,0.00,28.0,26.3,00.0,37.0,29.8,08.1,0000.0,0005.83,0002.19,0001.82
2022-11-02 09:07:00,,0818.7,5.00,0.00,28.0,26.3,00.0,36.9,29.8,08.2,0000.0,0005.81,0002.18,0001.81
2022-11-02 09:08:00,,0818.7,5.00,0.00,28.0,26.3,00.0,36.9,29.8,08.2,0000.0,0005.07,0002.17,0001.80
2022-11-02 09:09:00,,0818.7,5.01,0.00,28.0,26.3,00.0,36.9,29.7,08.2,0000.0,0004.68,0002.17,0001.80
2022-11-02 09:10:00,,0818.7,5.00,0.00,28.0,26.3,00.0,36.9,29.7,08.2,0000.0,0004.65,0002.16,0001.81
2022-11-02 09:11:00,,0818.7,5.00,0.00,28.0,26.3,00.0,36.9,29.7,08.1,0000.0,0003.37,0002.12,0001.81
2022-11-02 09:12:00,,0818.8,5.00,0.00,28.0,26.3,00.0,36.9,29.7,08.2,0000.0,0003.04,0002.13,0001.81
2022-11-02 09:13:00,,0818.7,5.00,0.00,28.0,26.3,00.0,36.9,29.7,08.2,0000.0,0003.02,0002.15,0001.81
2022-11-02 09:14:00,,0818.7,5.00,0.00,28.0,26.3,00.0,36.9,29.7,08.1,0000.0,0002.98,0002.15,0001.81
2022-11-02 09:15:00,,0818.8,5.01,0.00,28.0,26.4,00.0,36.9,29.8,08.2,0000.0,0002.91,0002.12,0001.80
2022-11-02 09:16:00,,0818.9,4.99,0.00,28.0,26.4,00.0,36.9,29.7,08.2,0000.0,0002.92,0002.13,0001.80
2022-11-02 09:17:00,,0818.8,4.99,0.00,27.9,26.2,00.0,36.9,29.7,08.4,0000.0,0002.79,0002.11,0001.81
2022-11-02 09:18:00,,0818.8,5.02,0.00,27.9,26.2,00.0,36.9,29.7,08.5,0000.0,0002.71,0002.09,0001.80
2022-11-02 09:19:00,,0818.8,4.98,0.00,27.9,26.3,00.0,36.8,29.7,08.6,0000.0,0002.80,0002.12,0001.80
2022-11-02 09:20:00,,0818.8,5.01,0.00,27.9,26.3,00.0,36.8,29.7,08.5,0000.0,0002.86,0002.11,0001.78
2022-11-02 09:21:00,,0818.8,5.01,0.00,27.9,26.3,00.0,36.8,29.7,08.5,0000.0,0002.98,0002.13,0001.77
2022-11-02 09:22:00,,0818.8,5.00,0.00,27.9,26.3,00.0,36.8,29.7,08.4,0000.0,0003.05,0002.13,0001.76
2022-11-02 09:23:00,,0818.8,5.00,0.00,27.9,26.4,00.0,36.8,29.7,08.4,0000.0,0003.03,0002.13,0001.77
2022-11-02 09:24:00,,0818.8,5.00,0.00,27.9,26.4,00.0,36.8,29.7,08.4,0000.0,0003.05,0002.12,0001.77
2022-11-02 09:25:00,,0818.8,5.00,0.00,27.9,26.4,00.0,36.8,29.8,08.3,0000.0,0003.13,0002.13,0001.76
2022-11-02 09:26:00,,0818.8,4.99,0.00,27.9,26.4,00.0,36.8,29.7,08.3,0000.0,0003.24,0002.13,0001.75
2022-11-02 09:27:00,,0818.7,5.00,0.00,27.9,26.5,00.0,36.8,29.7,08.3,0000.0,0003.20,0002.11,0001.74
2022-11-02 09:28:00,,0818.7,5.00,0.00,27.9,26.5,00.0,36.8,29.8,08.3,0000.0,0003.14,0002.09,0001.73
2022-11-02 09:29:00,,0818.7,5.01,0.00,27.9,26.5,00.0,36.8,29.8,08.3,0000.0,0003.13,0002.09,0001.73
2022-11-02 09:30:00,,0818.7,5.01,0.00,27.9,26.5,00.0,36.8,29.8,08.3,0000.0,0002.98,0002.05,0001.74
2022-11-02 09:31:00,,0818.8,5.00,0.00,27.9,26.5,00.0,36.8,29.8,08.3,0000.0,0002.91,0002.05,0001.75
2022-11-02 09:32:00,,0818.7,4.99,0.00,27.9,26.5,00.0,36.8,29.8,08.3,0000.0,0002.89,0002.05,0001.75
2022-11-02 09:33:00,,0818.8,5.00,0.00,27.9,26.5,00.0,36.8,29.8,08.2,0000.0,0002.91,0002.06,0001.75
2022-11-02 09:34:00,,0818.8,5.01,0.00,27.9,26.6,00.0,36.8,29.8,08.2,0000.0,0002.93,0002.07,0001.74
2022-11-02 09:35:00,,0818.7,5.01,0.00,28.0,26.6,00.0,36.8,29.8,08.2,0000.0,0002.81,0002.05,0001.73
2022-11-02 09:36:00,,0818.7,5.01,0.00,28.0,26.6,00.0,36.8,29.8,08.2,0000.0,0002.92,0002.08,0001.74
2022-11-02 09:37:00,,0818.8,4.98,0.00,28.0,26.6,00.0,36.8,29.8,08.2,0000.0,0002.93,0002.08,0001.74
2022-11-02 09:38:00,,0818.8,5.00,0.00,28.0,26.6,00.0,36.8,29.8,08.2,0000.0,0003.20,0002.10,0001.75
2022-11-02 09:39:00,,0818.7,5.00,0.00,28.0,26.6,00.0,36.8,29.8,08.2,0000.0,0003.36,0002.11,0001.75
2022-11-02 09:40:00,,0818.8,5.00,0.00,28.0,26.6,00.0,36.8,29.8,08.2,0000.0,0003.42,0002.12,0001.75
2022-11-02 09:41:00,,0818.7,5.00,0.00,28.0,26.5,00.0,36.8,29.8,08.2,0000.0,0003.45,0002.13,0001.75
2022-11-02 09:42:00,,0818.7,5.00,0.00,28.0,26.6,00.0,36.8,29.8,08.2,0000.0,0003.46,0002.13,0001.74
2022-11-02 09:43:00,,0818.7,5.00,0.00,28.0,26.6,00.0,36.8,29.8,08.3,0000.0,0003.39,0002.13,0001.74
2022-11-02 09:44:00,,0818.7,5.01,0.00,28.0,26.6,00.0,36.8,29.8,08.2,0000.0,0003.38,0002.14,0001.73
2022-11-02 09:45:00,,0818.7,5.00,0.00,28.0,26.6,00.0,36.8,29.8,08.2,0000.0,0003.34,0002.12,0001.73
2022-11-02 09:46:00,,0818.7,5.00,0.00,28.0,26.6,00.0,36.8,29.8,08.2,0000.0,0003.35,0002.12,0001.74
2022-11-02 09:47:00,,0818.7,4.99,0.00,28.0,26.6,00.0,36.8,29.8,08.3,0000.0,0003.15,0002.07,0001.75
2022-11-02 09:48:00,,0818.7,5.00,0.00,28.0,26.6,00.0,36.8,29.8,08.3,0000.0,0003.23,0002.05,0001.76
2022-11-02 09:49:00,,0818.7,4.99,0.00,28.0,26.6,00.0,36.8,29.9,08.3,0000.0,0003.08,0002.06,0001.77
2022-11-02 09:50:00,,0818.8,5.00,0.00,28.0,26.6,00.0,36.8,29.9,08.3,0000.0,0003.23,0002.06,0001.77
2022-11-02 09:51:00,,0818.8,5.00,0.00,28.0,26.7,00.0,36.8,29.9,08.3,0000.0,0003.21,0002.05,0001.77
2022-11-02 09:52:00,,0818.8,5.01,0.00,28.0,26.7,00.0,36.8,29.9,08.3,0000.0,0003.19,0002.01,0001.76
2022-11-02 09:53:00,,0818.8,5.00,0.00,28.0,26.7,00.0,36.8,29.9,08.3,0000.0,0003.31,0002.03,0001.77
2022-11-02 09:54:00,,0818.8,5.01,0.00,28.0,26.7,00.0,36.8,29.9,08.3,0000.0,0003.44,0002.05,0001.78
2022-11-02 09:55:00,,0818.8,4.99,0.00,28.0,26.6,00.0,36.8,29.9,08.3,0000.0,0003.44,0002.04,0001.79
2022-11-02 09:56:00,,0818.8,5.00,0.00,28.0,26.6,00.0,36.8,29.9,08.3,0000.0,0003.53,0002.04,0001.79
2022-11-02 09:57:00,,0818.7,5.00,0.00,28.0,26.5,00.0,36.8,29.9,08.4,0000.0,0003.55,0002.05,0001.79
2022-11-02 09:58:00,,0818.7,5.00,0.00,28.0,26.5,00.0,36.8,29.8,08.4,0000.0,0004.16,0002.04,0001.78
2022-11-02 09:59:00,,0818.7,5.00,0.00,28.0,26.5,00.0,36.8,29.8,08.4,0000.0,0004.08,0002.02,0001.77
